weather.gov     
National Weather Service

Terminal Aerodrome Forecast
NWS Homepage
This page is being discontinued on March 12, 2014.
The same data is available at this site. Please update your bookmarks.
Thank you, and we apologize for the inconvenience.
Please send an email to SR-SRH.Webmaster@noaa.gov with any concerns.


Current Version
Previous Version:    01  02  03  04  05  06  07  08  09  10  11  12  13  14  15  16  17  18  19  20  21  22  23  24  25  
[Printable]
967
FTUS41 KRNK 021135
TAFDAN
TAF
KDAN 021135Z 0212/0312 23005KT P6SM SCT130 BKN250
     FM021800 24007KT P6SM SCT060 BKN120 BKN250 PROB30 0300/0303 5SM
      -TSRA BR BKN050CB
     FM030600 00000KT 6SM BR BKN060 BKN110
      AMD NOT SKED=




967
FTUS41 KRNK 021135
TAFDAN
TAF
KDAN 021135Z 0212/0312 23005KT P6SM SCT130 BKN250
     FM021800 24007KT P6SM SCT060 BKN120 BKN250 PROB30 0300/0303 5SM
      -TSRA BR BKN050CB
     FM030600 00000KT 6SM BR BKN060 BKN110
      AMD NOT SKED=


U.S. Dept. of Commerce
NOAA National Weather Service
1325 East West Highway
Silver Spring, MD 20910
E-mail: w-nws.webmaster@noaa.gov
Page last modified: May 16, 2007
NATIONAL WEATHER SERVICE: for Safety, for Work, for Fun - FOR LIFE